Regional Weather Roundup
Issued by NWS Kansas City/Pleasant Hill, MO

Home | Current Version | Previous Version | Text Only | Print | Product List | Glossary On
Versions: 1 2 3 4 5 6 7 8 9 10 11 12 13 14 15 16 17 18 19 20 21 22 23 24 25 26 27 28 29 30 31 32 33 34 35 36 37 38 39 40 41 42 43 44 45 46 47 48 49 50
569
ASUS43 KEAX 070210
RWREAX

WEATHER ROUNDUP FOR EASTERN KANSAS AND NORTHWEST MISSOURI
NATIONAL WEATHER SERVICE KANSAS CITY/PLEASANT HILL MO
800 PM CST TUE DEC 06 2016

KSZ040-057-103>105-MOZ028-029-037-043-070300-
...KANSAS CITY METROPOLITAN AREA...

CITY           SKY/WX    TMP DP  RH WIND       PRES   REMARKS
K.C. INTL      MOCLDY    29  13  51 SW6       30.12R WCI  23
K.C. DOWNTOWN  CLOUDY    34  15  46 SW7       30.13R WCI  28
LEES SUMMIT    CLOUDY    31  15  52 SW5       30.13R WCI  26
OLATHE - IXD   PTCLDY    32  15  49 SW5       30.14R WCI  27
OLATHE - OJC   PTCLDY    29  19  66 CALM      30.13R
LAWRENCE       MOCLDY    25  21  85 CALM      30.15R

$$

MOZ001>008-011>017-020>025-030>033-038>040-044>046-053-054-070300-
...NORTHERN AND CENTRAL MISSOURI...

CITY           SKY/WX    TMP DP  RH WIND       PRES   REMARKS
ST. JOSEPH     PTCLDY    28  17  63 W8        30.12R WCI  20
MOSBY            N/A     30  18  59 CALM      30.12S
WARRENSBURG    PTCLDY    30  18  59 W5        30.13R WCI  25
WHITEMAN AFB   PTCLDY    32  16  52 NW5       30.11R WCI  27
CLINTON        CLOUDY    32  16  51 CALM      30.13R
SEDALIA        MOCLDY    33  17  51 NW8       30.12R WCI  26
WARSAW         NOT AVBL
CHILLICOTHE      N/A     29  16  58 SW3       30.11S
KIRKSVILLE     CLEAR     30  15  53 W9        30.07R WCI  22

$$

MOZ041-047>049-056>058-063>065-088>090-097-070300-
...EASTERN AND SOUTHERN MISSOURI...

CITY           SKY/WX    TMP DP  RH WIND       PRES   REMARKS
ST. LOUIS INTL PTCLDY    36  22  56 W9        30.07R WCI  29
SPIRIT OF STL  PTCLDY    31  24  75 CALM      30.08R
COLUMBIA       MOCLDY    32  19  58 W9        30.11R WCI  24
JEFFERSON CITY PTCLDY    34  21  59 NW7       30.12R WCI  28
ROLLA          CLOUDY    33  22  63 NW10      30.07R WCI  25
OSAGE BEACH    CLOUDY    35  18  49 VRB5      30.11R WCI  31
SPRINGFIELD    PTCLDY    34  20  56 NW3       30.10R
BRANSON        CLOUDY    36  27  69 NW7       30.11R WCI  30
JOPLIN         PTCLDY    33  22  63 CALM      30.13R
WEST PLAINS    CLOUDY    36  25  64 NW6       30.09R WCI  31

$$

IAZ060-094-KSZ022-034>040-054-083-096-NEZ052-066-093-070300-
...KANSAS...SOUTHEAST NEBRASKA AND IOWA...

CITY           SKY/WX    TMP DP  RH WIND       PRES   REMARKS
TOPEKA         PTCLDY    28  16  60 CALM      30.14R
MANHATTAN      CLEAR     24  16  71 CALM      30.14R
EMPORIA        PTCLDY    31  15  52 CALM      30.12R
CHANUTE        CLOUDY    33  17  51 NE3       30.11F
WICHITA        CLOUDY    33  19  56 CALM      30.11S
OMAHA          CLEAR     25  10  53 NW10      30.08R WCI  15
LINCOLN        CLEAR     28   7  41 NW9       30.11R WCI  19
FALLS CITY     CLEAR     27  14  58 W10       30.11R WCI  17
LAMONI         CLEAR     25  15  66 W10       30.05R WCI  15
DES MOINES     CLEAR     27  15  61 W13       30.02R WCI  16

$$





USA.gov is the U.S. government's official web portal to all federal, state and local government web resources and services.